Weather reports worldwide

Advertisment
Jersey Airport, United Kingdom (3895): temperature & dewpoint: 18.01.2020 01:00:00 - 24.01.2020 01:00:00 (GMT)Jersey Airport, United Kingdom (3895): temperature -20cm & temperature -100cm: 18.01.2020 01:00:00 - 24.01.2020 01:00:00 (GMT)Jersey Airport, United Kingdom (3895): wind speed & gusts: 18.01.2020 01:00:00 - 24.01.2020 01:00:00 (GMT)Jersey Airport, United Kingdom (3895): wind direction: 18.01.2020 01:00:00 - 24.01.2020 01:00:00 (GMT)Jersey Airport, United Kingdom (3895): reduced air pressure: 18.01.2020 01:00:00 - 24.01.2020 01:00:00 (GMT)Jersey Airport, United Kingdom (3895): visibility: 18.01.2020 01:00:00 - 24.01.2020 01:00:00 (GMT)Jersey Airport, United Kingdom (3895): sunshine duration: 18.01.2020 01:00:00 - 24.01.2020 01:00:00 (GMT)Jersey Airport, United Kingdom (3895): precipitation: 18.01.2020 01:00:00 - 24.01.2020 01:00:00 (GMT)
Date & Time tt [°C] td [°C] tt -20cm [°C] tt -100cm [°C] ff [km/h] ff [kn] fx [km/h] fx [kn] dd ppp [hPa] vv [km] sd [min] rr [mm]
24.01.2020 01:00:00 5,2 3,6 - - 18 10 - - E 1024,4 6 0 0,0
24.01.2020 00:00:00 5,0 3,3 - - 21 11 - - ENE 1024,4 8 - 0,0
23.01.2020 23:00:00 5,0 3,7 - - 24 13 - - E 1024,7 5 0 0,0
23.01.2020 22:00:00 5,5 4,2 - - 24 13 - - E 1025,0 6 0 0,0
23.01.2020 21:00:00 5,7 4,4 - - 22 12 - - E 1025,3 9 0 0,0
23.01.2020 20:00:00 5,6 4,4 - - 26 14 - - ENE 1025,1 10 0 0,0
23.01.2020 19:00:00 5,5 4,3 - - 29 16 - - ENE 1025,2 7 0 0,0
23.01.2020 18:00:00 5,4 4,4 - - 28 15 - - ENE 1025,4 8 0 0,0
23.01.2020 17:00:00 5,4 3,6 - - 21 11 - - ENE 1025,3 10 0 0,0
23.01.2020 16:00:00 5,8 3,6 - - 24 13 - - ENE 1025,9 10 36 0,0
23.01.2020 15:00:00 7,1 2,9 - - 24 13 - - ENE 1026,4 10 60 0,0
23.01.2020 14:00:00 7,0 2,4 - - 28 15 - - ENE 1027,2 10 60 0,0
23.01.2020 13:00:00 6,7 2,2 - - 24 13 - - ENE 1028,2 13 60 0,0
23.01.2020 12:00:00 6,5 2,8 - - 22 12 - - ENE 1028,9 10 60 0,0
23.01.2020 11:00:00 5,3 2,1 - - 21 11 - - ENE 1029,2 9 60 0,0
23.01.2020 10:00:00 4,7 2,2 - - 24 13 - - ENE 1029,6 7 48 0,0
23.01.2020 09:00:00 3,7 1,9 8,0 8,9 26 14 - - ENE 1029,9 7 0 0,0
23.01.2020 08:00:00 2,7 1,4 - - 15 8 - - ENE 1030,4 6 0 0,0
23.01.2020 07:00:00 2,6 0,6 - - 18 10 - - ENE 1030,2 1,2 0 0,0
23.01.2020 06:00:00 2,2 -0,1 - - 26 14 - - E 1030,1 9 0 0,0
23.01.2020 05:00:00 2,3 0,0 - - 24 13 - - E 1030,1 10 0 0,0
23.01.2020 04:00:00 3,0 0,5 - - 29 16 - - E 1030,4 10 0 0,0
23.01.2020 03:00:00 3,3 0,4 - - 24 13 - - ENE 1031,0 10 0 0,0
23.01.2020 02:00:00 4,0 2,1 - - 26 14 - - ENE 1031,8 9 0 0,0
23.01.2020 01:00:00 4,6 3,0 - - 28 15 48 26 E 1032,0 10 0 0,0
23.01.2020 00:00:00 5,0 3,3 - - 29 16 48 26 E 1032,5 10 - 0,0
22.01.2020 23:00:00 5,0 3,1 - - 37 20 55 30 ENE 1032,7 10 0 0,0
22.01.2020 22:00:00 5,3 3,4 - - 35 19 52 28 ENE 1032,4 14 0 0,0
22.01.2020 21:00:00 4,8 3,3 - - 31 17 - - ENE 1033,2 11 0 0,0
22.01.2020 20:00:00 4,7 2,9 - - 31 17 48 26 ENE 1033,5 12 0 0,0
22.01.2020 19:00:00 4,5 2,7 - - 28 15 46 25 ENE 1033,4 10 0 0,0
22.01.2020 18:00:00 4,8 2,6 - - 24 13 - - ENE 1033,2 10 0 0,0
22.01.2020 17:00:00 5,5 3,0 - - 18 10 - - ENE 1033,2 10 12 0,0
22.01.2020 16:00:00 5,7 2,8 - - 22 12 - - E 1033,7 10 30 0,0
22.01.2020 15:00:00 6,1 2,8 - - 22 12 - - E 1034,2 10 6 0,0
22.01.2020 14:00:00 6,5 3,7 - - 21 11 - - E 1034,5 10 54 0,0
22.01.2020 13:00:00 7,1 3,5 - - 18 10 - - E 1035,3 10 48 0,0
22.01.2020 12:00:00 6,9 3,4 - - 24 13 - - ENE 1035,9 10 6 0,0
22.01.2020 11:00:00 6,7 3,2 - - 24 13 - - ENE 1036,3 24 30 0,0
22.01.2020 10:00:00 6,7 4,1 - - 24 13 - - NE 1036,0 26 60 0,0
22.01.2020 09:00:00 5,1 3,9 8,2 9,0 13 7 - - NE 1036,0 10 30 0,0
22.01.2020 08:00:00 4,0 2,8 - - 13 7 - - ENE 1035,9 10 0 0,0
22.01.2020 07:00:00 3,8 2,7 - - 13 7 - - ENE 1036,3 10 0 0,0
22.01.2020 06:00:00 3,5 2,3 - - 13 7 - - ENE 1036,5 10 0 0,0
22.01.2020 05:00:00 3,5 2,0 - - 15 8 - - ENE 1037,1 17 0 0,0
22.01.2020 04:00:00 4,2 2,2 - - 13 7 - - ENE 1037,6 10 0 0,0
22.01.2020 03:00:00 3,9 1,5 - - 13 7 - - NE 1038,0 10 0 0,0
22.01.2020 02:00:00 3,0 0,9 - - 16 9 - - NE 1038,2 24 0 0,0
22.01.2020 01:00:00 3,1 1,3 - - 11 6 - - ENE 1038,4 10 0 0,0
22.01.2020 00:00:00 2,1 0,7 - - 13 7 - - E 1039,2 10 - 0,0
21.01.2020 23:00:00 2,6 1,1 - - 13 7 - - E 1039,3 10 0 0,0
21.01.2020 22:00:00 2,2 1,1 - - 15 8 - - E 1039,3 10 0 0,0
21.01.2020 21:00:00 3,3 1,7 - - 13 7 - - E 1039,6 10 0 0,0
21.01.2020 20:00:00 4,2 2,1 - - 15 8 - - ENE 1039,7 10 0 0,0
21.01.2020 19:00:00 4,9 1,7 - - 15 8 - - ENE 1039,3 10 0 0,0
21.01.2020 18:00:00 5,3 0,7 - - 18 10 - - ENE 1039,1 10 0 0,0
21.01.2020 17:00:00 5,4 0,3 - - 13 7 - - ENE 1039,2 10 30 0,0
21.01.2020 16:00:00 6,6 2,9 - - 13 7 - - ENE 1039,3 10 60 0,0
21.01.2020 15:00:00 7,1 1,5 - - 21 11 - - ENE 1039,6 10 60 0,0
21.01.2020 14:00:00 7,2 3,4 - - 16 9 - - E 1040,2 19 60 0,0
21.01.2020 13:00:00 7,8 3,1 - - 16 9 - - E 1040,8 10 60 0,0
21.01.2020 12:00:00 7,7 2,3 - - 15 8 - - ENE 1041,3 10 60 0,0
21.01.2020 11:00:00 7,6 2,5 - - 16 9 - - ENE 1042,0 10 60 0,0
21.01.2020 10:00:00 7,5 2,7 - - 15 8 - - NE 1041,7 10 60 0,0
21.01.2020 09:00:00 6,7 2,4 8,7 9,2 11 6 - - NE 1041,6 10 36 0,0
21.01.2020 08:00:00 6,1 2,3 - - 11 6 - - NE 1041,4 10 0 0,0
21.01.2020 07:00:00 5,5 2,7 - - 11 6 - - NNE 1041,2 29 0 0,0
21.01.2020 06:00:00 5,4 2,6 - - 8 4 - - NE 1041,4 25 0 0,0
21.01.2020 05:00:00 5,6 3,6 - - 9 5 - - E 1041,8 20 0 0,0
21.01.2020 04:00:00 5,8 3,7 - - 8 4 - - E 1042,1 10 0 0,0
21.01.2020 03:00:00 5,7 1,6 - - 5 3 - - E 1042,6 10 0 0,0
21.01.2020 02:00:00 6,6 1,3 - - 9 5 - - ENE 1043,1 10 0 0,0
21.01.2020 01:00:00 6,7 1,4 - - 8 4 - - NE 1043,7 10 0 0,0
21.01.2020 00:00:00 6,5 1,8 - - 8 4 - - ENE 1044,6 10 - 0,0
20.01.2020 23:00:00 7,0 2,0 - - 9 5 - - ENE 1044,7 10 0 0,0
20.01.2020 22:00:00 7,1 2,8 - - 13 7 - - NE 1044,9 40 0 0,0
20.01.2020 21:00:00 7,1 4,0 - - 13 7 - - NE 1044,9 10 0 0,0
20.01.2020 20:00:00 7,1 3,7 - - 13 7 - - NE 1045,1 10 0 0,0
20.01.2020 19:00:00 7,1 3,7 - - 18 10 - - NE 1045,4 19 0 0,0
20.01.2020 18:00:00 7,3 3,8 - - 18 10 - - NE 1045,5 20 0 0,0
20.01.2020 17:00:00 7,3 4,4 - - 13 7 - - ENE 1045,6 10 0 0,0
20.01.2020 16:00:00 7,5 4,0 - - 13 7 - - ENE 1045,6 10 0 0,0
20.01.2020 15:00:00 7,7 4,6 - - 13 7 - - ENE 1046,1 10 0 0,0
20.01.2020 14:00:00 7,7 4,8 - - 16 9 - - ENE 1046,7 10 36 0,0
20.01.2020 13:00:00 7,6 4,0 - - 16 9 - - NE 1047,3 10 60 0,0
20.01.2020 12:00:00 7,7 4,2 - - 18 10 - - ENE 1048,1 22 60 0,0
20.01.2020 11:00:00 7,3 4,3 - - 15 8 - - ENE 1048,7 11 60 0,0
20.01.2020 10:00:00 7,1 4,6 - - 13 7 - - ENE 1048,6 17 60 0,0
20.01.2020 09:00:00 5,2 3,7 8,7 9,4 11 6 - - ENE 1048,5 27 18 0,0
20.01.2020 08:00:00 2,9 1,4 - - 15 8 - - E 1048,5 10 0 0,0
20.01.2020 07:00:00 4,9 3,1 - - 11 6 - - ENE 1048,2 10 0 0,0
20.01.2020 06:00:00 4,4 2,9 - - 9 5 - - ENE 1047,8 10 0 0,0
20.01.2020 05:00:00 4,8 3,1 - - 11 6 - - ENE 1047,6 10 0 0,0
20.01.2020 04:00:00 5,1 3,6 - - 11 6 - - NE 1047,7 10 0 0,0
20.01.2020 03:00:00 5,4 3,2 - - 11 6 - - ENE 1047,9 10 0 0,0
20.01.2020 02:00:00 5,4 2,9 - - 13 7 - - ENE 1048,0 10 0 0,0
20.01.2020 01:00:00 5,7 3,0 - - 13 7 - - ENE 1048,8 10 0 0,0
20.01.2020 00:00:00 5,8 2,8 - - 11 6 - - NE 1048,6 10 - 0,0
19.01.2020 23:00:00 6,0 2,4 - - 13 7 - - NE 1048,4 10 0 0,0
19.01.2020 22:00:00 6,0 2,2 - - 13 7 - - ENE 1048,0 10 0 0,0
19.01.2020 21:00:00 6,3 1,9 - - 15 8 - - NE 1047,8 10 0 0,0
19.01.2020 20:00:00 6,4 2,1 - - 13 7 - - NE 1047,7 10 0 0,0
19.01.2020 19:00:00 6,4 2,1 - - 15 8 - - NE 1047,2 10 0 0,0
19.01.2020 18:00:00 6,1 2,1 - - 15 8 - - NNE 1046,5 10 0 0,0
19.01.2020 17:00:00 6,4 2,6 - - 11 6 - - NNE 1046,0 10 24 0,0
19.01.2020 16:00:00 7,4 2,5 - - 16 9 - - NNE 1045,5 10 60 0,0
19.01.2020 15:00:00 8,1 2,4 - - 18 10 - - NNE 1044,8 30 60 0,0
19.01.2020 14:00:00 8,2 1,6 - - 16 9 - - NE 1044,6 10 60 0,0
19.01.2020 13:00:00 7,9 2,4 - - 18 10 - - NNE 1044,7 10 60 0,0
19.01.2020 12:00:00 7,4 2,4 - - 16 9 - - NE 1044,5 10 60 0,0
19.01.2020 11:00:00 7,2 2,3 - - 18 10 - - NE 1044,2 10 60 0,0
19.01.2020 10:00:00 6,7 2,0 - - 22 12 - - NE 1043,5 35 60 0,0
19.01.2020 09:00:00 6,1 1,9 9,0 9,7 16 9 - - NE 1042,8 10 30 0,0
19.01.2020 08:00:00 5,4 1,9 - - 16 9 - - NE 1041,6 10 0 0,0
19.01.2020 07:00:00 5,4 2,1 - - 9 5 - - ENE 1040,8 10 0 0,0
19.01.2020 06:00:00 5,7 1,9 - - 15 8 - - NE 1039,8 10 0 0,0
19.01.2020 05:00:00 6,2 2,5 - - 13 7 - - NE 1039,2 30 0 0,0
19.01.2020 04:00:00 6,3 2,2 - - 15 8 - - NE 1038,7 10 0 0,0
19.01.2020 03:00:00 5,8 1,6 - - 9 5 - - NE 1038,1 10 0 0,0
19.01.2020 02:00:00 5,8 1,7 - - 11 6 - - NE 1037,6 10 0 0,0
19.01.2020 01:00:00 5,9 1,6 - - 13 7 - - NE 1036,8 45 0 0,0
19.01.2020 00:00:00 5,6 1,5 - - 11 6 - - NE 1036,1 10 - 0,0
18.01.2020 23:00:00 5,2 1,3 - - 13 7 - - NE 1035,3 35 0 0,0
18.01.2020 22:00:00 5,5 0,9 - - 11 6 - - ENE 1034,3 10 0 0,0
18.01.2020 21:00:00 5,6 0,7 - - 11 6 - - NE 1033,8 10 0 0,0
18.01.2020 20:00:00 5,4 1,2 - - 13 7 - - ENE 1032,4 10 0 0,0
18.01.2020 19:00:00 6,0 1,3 - - 21 11 - - NE 1031,1 10 0 0,0
18.01.2020 18:00:00 6,1 1,7 - - 15 8 - - ENE 1030,3 10 0 0,0
18.01.2020 17:00:00 5,9 1,6 - - 18 10 - - E 1029,7 10 6 0,0
18.01.2020 16:00:00 7,6 2,2 - - 21 11 - - ENE 1028,8 30 60 0,0
18.01.2020 15:00:00 8,3 3,1 - - 16 9 - - NE 1028,2 10 60 0,0
18.01.2020 14:00:00 8,2 3,8 - - 16 9 - - ENE 1027,6 23 60 0,0
18.01.2020 13:00:00 8,4 3,9 - - 16 9 - - E 1027,6 10 60 0,0
18.01.2020 12:00:00 8,1 3,7 - - 21 11 - - E 1027,7 10 60 0,0
18.01.2020 11:00:00 8,0 5,1 - - 11 6 - - E 1028,0 27 18 0,0
18.01.2020 10:00:00 7,2 5,0 - - 13 7 - - E 1027,4 10 18 0,0
18.01.2020 09:00:00 6,4 4,9 9,7 9,7 11 6 - - E 1027,1 10 18 0,0
18.01.2020 08:00:00 5,6 3,7 - - 11 6 - - ENE 1026,6 10 0 0,0
18.01.2020 07:00:00 6,4 4,5 - - 8 4 - - NE 1026,4 30 0 0,0
18.01.2020 06:00:00 5,2 4,0 - - 5 3 - - NW 1026,3 10 0 0,0
18.01.2020 05:00:00 5,2 3,9 - - 9 5 - - NW 1025,7 10 0 0,2
18.01.2020 04:00:00 5,9 4,7 - - 8 4 - - W 1025,3 10 0 0,4
18.01.2020 03:00:00 5,7 4,3 - - 9 5 54 29 NW 1025,3 10 0 0,6
18.01.2020 02:00:00 7,2 5,0 - - 21 11 - - WNW 1025,0 10 0 0,2
18.01.2020 01:00:00 7,4 4,9 - - 29 16 50 27 W 1025,0 23 0 0,2

tt = temperature
td = dewpoint
tt -20cm = temperature -20cm
tt -100cm = temperature -100cm
ff = wind speed
fx = gusts
dd = wind direction
ppp = reduced air pressure
vv = visibility
sd = sunshine duration
rr = precipitation

Next stations